Firenze / Peretola, Italy

1:47 AM CET on December 05, 2016 (GMT +0100)
Florence

Weather History for LIRQ - January, 2014

Change the Weather History Date:

Thursday, January 23, 2014

  Actual Average Record
Temperature  
Mean Temperature 43 °F -  
Max Temperature 52 °F 49 °F 68 °F (2009)
Min Temperature 34 °F 35 °F 24 °F (1999)
Degree Days  
Heating Degree Days 22    
Moisture  
Dew Point 43 °F    
Average Humidity 93    
Maximum Humidity 100    
Minimum Humidity 82    
Precipitation  
Precipitation 0.02 in - - ()
Sea Level Pressure  
Sea Level Pressure 30.00 in    
Wind  
Wind Speed 2 mph ()    
Max Wind Speed 5 mph    
Max Gust Speed -    
Visibility 4.4 miles    
Events Fog , Rain    
Averages and records for this station are not official NWS values.
T = Trace of Precipitation, MM = Missing Value Source: Averaged Metar Reports

Daily Weather History Graph

Daily Weather History Graph

Search for Another Location

Airport or City:

Trip Planner

Search our weather history database for the weather conditions in past years. The results will help you decide how hot, cold, wet, or windy it might be!

Date:

Astronomy

Jan. 23, 2014 Rise Set
Actual Time 7:40 AM CET 5:13 PM CET
Civil Twilight 7:09 AM CET 5:44 PM CET
Nautical Twilight 6:34 AM CET 6:19 PM CET
Astronomical Twilight 6:00 AM CET 6:54 PM CET
Moon No Moon Rise 10:51 AM CET (1/23)
Length of Visible Light 10h 35m
Length of Day
9h 32m
Waning Gibbous, 58% of the Moon is Illuminated
Jan 23
Waning Gibbous
Jan 24
Last Quarter
Jan 30
New
Feb 6
First Quarter
Feb 15
Full

Hourly Weather History & Observations

Time (CET) Temp. Windchill Dew Point Humidity Pressure Visibility Wind Dir Wind Speed Gust Speed Precip Events Conditions
12:20 AM 42.8 °F - 41.0 °F 93% 30.01 in - Calm Calm - N/A   Clear
12:50 AM 42.8 °F - 41.0 °F 93% 30.01 in - NNW 2.3 mph - N/A   Clear
1:00 AM 41 °F - 40 °F 92% 30.02 in 6 mi NNW 2.3 mph - -  
1:20 AM 41.0 °F - 39.2 °F 93% 30.01 in - Variable 2.3 mph - N/A   Clear
1:50 AM 39.2 °F - 39.2 °F 100% 30.01 in - Calm Calm - N/A   Clear
2:20 AM 39.2 °F - 39.2 °F 100% 30.01 in - Variable 1.2 mph - N/A   Clear
2:50 AM 39.2 °F - 39.2 °F 100% 30.01 in 5.0 mi Calm Calm - N/A   Unknown
3:20 AM 39.2 °F - 39.2 °F 100% 30.01 in 5.0 mi SSW 1.2 mph - N/A   Unknown
3:50 AM 37.4 °F - 37.4 °F 100% 30.01 in 5.0 mi Variable 2.3 mph - N/A   Partly Cloudy
4:00 AM 39 °F - 39 °F 98% 30.02 in 5 mi WNW 1.2 mph - -   Mist
4:20 AM 39.2 °F - 37.4 °F 93% 30.01 in 5.0 mi SW 2.3 mph - N/A   Partly Cloudy
4:50 AM 39.2 °F - 39.2 °F 100% 30.01 in 5.0 mi Variable 2.3 mph - N/A   Partly Cloudy
5:20 AM 37.4 °F - 37.4 °F 100% 30.01 in 5.0 mi SW 1.2 mph - N/A   Partly Cloudy
5:50 AM 35.6 °F - 35.6 °F 100% 30.01 in 5.0 mi Variable 1.2 mph - N/A   Partly Cloudy
6:20 AM 35.6 °F - 35.6 °F 100% 30.01 in 5.0 mi Calm Calm - N/A Fog Shallow Fog
6:50 AM 35.6 °F - 35.6 °F 100% 30.04 in 4.3 mi NE 1.2 mph - N/A Fog Shallow Fog
7:00 AM 38 °F - 38 °F 99% 30.04 in 5 mi Calm Calm - - Fog Patches of Fog
7:20 AM 37.4 °F - 35.6 °F 93% 30.04 in 1.9 mi Calm Calm - N/A Fog Patches of Fog
7:50 AM 37.4 °F - 37.4 °F 100% 30.01 in 1.6 mi Variable 2.3 mph - N/A Fog Patches of Fog
8:20 AM 39.2 °F - 37.4 °F 93% 30.04 in 3.1 mi Variable 1.2 mph - N/A   Partly Cloudy
8:50 AM 41.0 °F - 41.0 °F 100% 30.04 in 3.7 mi Variable 1.2 mph - N/A   Partly Cloudy
9:20 AM 42.8 °F - 41.0 °F 93% 30.04 in 3.7 mi Calm Calm - N/A   Unknown
9:50 AM 42.8 °F - 42.8 °F 100% 30.04 in 4.3 mi Variable 1.2 mph - N/A   Unknown
10:00 AM 42 °F - 42 °F 99% 30.06 in 4 mi WSW 2.3 mph - -   Mist
10:20 AM 44.6 °F - 42.8 °F 93% 30.04 in 4.3 mi Variable 2.3 mph - N/A   Unknown
10:50 AM 44.6 °F - 44.6 °F 100% 30.04 in 5.0 mi Variable 2.3 mph - N/A   Unknown
11:20 AM 46.4 °F 44.3 °F 44.6 °F 93% 30.04 in 5.0 mi WSW 4.6 mph - N/A   Unknown
11:50 AM 48.2 °F - 44.6 °F 87% 30.04 in 5.0 mi Variable 2.3 mph - N/A   Unknown
12:20 PM 48.2 °F - 44.6 °F 87% 30.01 in 5.0 mi Variable 2.3 mph - N/A   Scattered Clouds
12:50 PM 50.0 °F - 44.6 °F 82% 30.01 in 5.0 mi Variable 2.3 mph - N/A   Mostly Cloudy
1:00 PM 49 °F - 46 °F 84% 30.02 in 5 mi West 2.3 mph - -   Mist
1:20 PM 50.0 °F - 46.4 °F 87% 30.01 in 5.0 mi WNW 3.5 mph - N/A   Mostly Cloudy
1:50 PM 51.8 °F - 46.4 °F 82% 29.98 in 5.0 mi Variable 2.3 mph - N/A   Partly Cloudy
2:20 PM 51.8 °F - 46.4 °F 82% 29.98 in 5.0 mi Variable 2.3 mph - N/A   Partly Cloudy
2:50 PM 51.8 °F - 46.4 °F 82% 29.98 in 5.0 mi WSW 3.5 mph - N/A   Mostly Cloudy
3:20 PM 51.8 °F - 46.4 °F 82% 29.98 in 5.0 mi WSW 3.5 mph - N/A   Mostly Cloudy
3:50 PM 51.8 °F - 46.4 °F 82% 29.98 in 5.0 mi SW 3.5 mph - N/A   Light Drizzle
4:20 PM 51.8 °F - 46.4 °F 82% 29.98 in 5.0 mi Variable 2.3 mph - N/A Rain Light Rain
4:50 PM 51.8 °F - 46.4 °F 82% 29.98 in 5.0 mi Variable 2.3 mph - N/A   Mostly Cloudy
5:20 PM 50.0 °F - 46.4 °F 87% 29.98 in 5.0 mi Calm Calm - N/A   Mostly Cloudy
5:50 PM 50.0 °F - 46.4 °F 87% 29.98 in 5.0 mi Variable 1.2 mph - N/A   Mostly Cloudy
6:20 PM 50.0 °F - 46.4 °F 87% 29.98 in 5.0 mi SW 3.5 mph - N/A   Mostly Cloudy
6:50 PM 50.0 °F - 46.4 °F 87% 29.98 in 5.0 mi South 2.3 mph - N/A Rain Light Rain
7:00 PM 49 °F - 47 °F 90% 29.99 in 5 mi South 2.3 mph - - Rain Light Rain
7:20 PM 50.0 °F - 48.2 °F 94% 29.98 in 5.0 mi Variable 2.3 mph - N/A Rain Light Rain
7:50 PM 48.2 °F - 46.4 °F 93% 29.98 in 3.7 mi SE 1.2 mph - N/A Rain Light Rain
8:20 PM 48.2 °F - 48.2 °F 100% 29.95 in 3.1 mi NNE 1.2 mph - N/A Rain Rain
8:50 PM 50.0 °F - 48.2 °F 94% 29.95 in 3.1 mi WNW 2.3 mph - N/A Rain Light Rain
9:20 PM 50.0 °F - 48.2 °F 94% 29.95 in 3.1 mi Variable 2.3 mph - N/A   Drizzle
9:50 PM 50.0 °F - 48.2 °F 94% 29.95 in 3.7 mi West 4.6 mph - N/A Rain Rain
10:00 PM 49 °F - 48 °F 97% 29.96 in 4 mi West 4.6 mph - - Rain Rain
10:20 PM 48.2 °F - 48.2 °F 100% 29.92 in 3.7 mi Variable 2.3 mph - N/A Rain Rain
10:50 PM 48.2 °F - 48.2 °F 100% 29.92 in 3.7 mi Variable 1.2 mph - N/A Rain Rain
11:20 PM 48.2 °F - 48.2 °F 100% 29.89 in 3.7 mi Variable 1.2 mph - N/A Rain Rain
11:50 PM 48.2 °F - 48.2 °F 100% 29.89 in 2.5 mi SW 3.5 mph - N/A Rain Rain